Location: Cella
(44.7333°N, 10.5667°E)
Time: 21:08:13
(UTC+00:00)

COSMOS 1867 COOLANT - Visible Passes

Search period start: 19 September 2021 00:00
Search period end: 29 September 2021 00:00
Orbit: 770 x 802 km, 65.0° (Epoch: 19 September)

Date Brightness Start Highest point End Pass type
(mag) Time Alt. Az. Time Alt. Az. Time Alt. Az.
19 Sep ? 19:26:08 10° N 19:28:06 12° NNE 19:30:04 10° NE visible
19 Sep ? 21:08:19 10° NNW 21:10:53 24° N 21:10:53 24° N visible
20 Sep ? 18:54:37 10° N 18:55:30 10° NNE 18:56:24 10° NNE visible
20 Sep ? 20:36:16 10° NNW 20:39:26 25° NNE 20:39:26 25° NNE visible
20 Sep ? 22:19:31 10° NW 22:20:03 13° NW 22:20:03 13° NW visible
21 Sep ? 20:04:14 10° NNW 20:08:01 23° NNE 20:08:01 23° NNE visible
21 Sep ? 21:47:17 10° NW 21:48:37 18° NW 21:48:37 18° NW visible
22 Sep ? 19:32:15 10° NNW 19:36:09 19° NNE 19:36:37 19° NE visible
22 Sep ? 21:15:05 10° NNW 21:17:14 24° NNW 21:17:14 24° NNW visible
23 Sep ? 19:00:17 10° N 19:03:39 16° NNE 19:05:14 14° NE visible
23 Sep ? 20:42:56 10° NNW 20:45:51 31° NNW 20:45:51 31° NNW visible
24 Sep ? 18:28:23 10° N 18:31:07 14° NNE 18:33:50 10° NE visible
24 Sep ? 20:10:50 10° NNW 20:14:31 36° N 20:14:31 36° N visible
24 Sep ? 21:54:41 10° NW 21:55:08 12° NW 21:55:08 12° NW visible
25 Sep ? 17:56:34 10° N 17:58:33 12° NNE 18:00:32 10° NE visible
25 Sep ? 19:38:45 10° NNW 19:43:13 35° NNE 19:43:13 35° NNE visible
25 Sep ? 21:22:16 10° NW 21:23:50 19° NW 21:23:50 19° NW visible
26 Sep ? 19:06:42 10° NNW 19:11:25 28° NE 19:11:57 28° NE visible
26 Sep ? 20:49:57 10° NW 20:52:34 28° NW 20:52:34 28° NW visible
27 Sep ? 18:34:40 10° NNW 18:39:01 23° NE 18:40:43 20° ENE visible
27 Sep ? 20:17:43 10° NW 20:21:21 43° NW 20:21:21 43° NW visible
28 Sep ? 18:02:40 10° NNW 18:06:34 19° NNE 18:09:32 13° ENE visible
28 Sep ? 19:45:31 10° NNW 19:50:10 62° NNW 19:50:10 62° NNW visible
28 Sep ? 21:30:28 10° WNW 21:30:48 11° WNW 21:30:48 11° WNW visible
